| time (UTC) | temp F | wind direction | speed MPH | gust MPH | rain 1hr in | rain 24hr in | rain mn in | humidity % | barometer mb |
| 20260510191833 | 70 | 180 | 3.0 | 7.0 | 0.00 | 0.00 | 0.00 | 72 | 1017.9 |
| 20260510191329 | 70 | 54 | 5.0 | 7.0 | 0.00 | 0.00 | 0.00 | 72 | 1017.8 |
| 20260510190827 | 70 | 67 | 0.0 | 3.0 | 0.00 | 0.00 | 0.00 | 73 | 1017.8 |
| 20260510190325 | 69 | 133 | 1.0 | 2.0 | 0.00 | 0.00 | 0.00 | 74 | 1018.0 |
| 20260510185820 | 67 | 172 | 0.0 | 2.0 | 0.00 | 0.00 | 0.00 | 77 | 1017.9 |
| 20260510185319 | 68 | 119 | 1.0 | 9.0 | 0.00 | 0.00 | 0.00 | 75 | 1017.9 |
| 20260510184815 | 69 | 94 | 3.0 | 4.0 | 0.00 | 0.00 | 0.00 | 73 | 1018.0 |
| 20260510184312 | 69 | 53 | 3.0 | 7.0 | 0.00 | 0.00 | 0.00 | 75 | 1017.8 |
| 20260510183806 | 70 | 283 | 1.0 | 8.0 | 0.00 | 0.00 | 0.00 | 75 | 1017.6 |
| 20260510183301 | 70 | 286 | 0.0 | 1.0 | 0.00 | 0.00 | 0.00 | 73 | 1017.7 |
| 20260510182758 | 70 | 155 | 0.0 | 3.0 | 0.00 | 0.00 | 0.00 | 75 | 1017.7 |
| 20260510182254 | 68 | 262 | 1.0 | 2.0 | 0.00 | 0.00 | 0.00 | 76 | 1017.6 |
| 20260510181751 | 67 | 117 | 2.0 | 3.0 | 0.00 | 0.00 | 0.00 | 77 | 1017.6 |
| 20260510181248 | 67 | 103 | 2.0 | 6.0 | 0.00 | 0.00 | 0.00 | 77 | 1017.7 |
| 20260510180744 | 68 | 47 | 2.0 | 6.0 | 0.00 | 0.00 | 0.00 | 76 | 1017.3 |
| 20260510180241 | 68 | 62 | 4.0 | 4.0 | 0.00 | 0.00 | 0.00 | 75 | 1017.5 |
| 20260510175738 | 67 | 118 | 2.0 | 4.0 | 0.00 | 0.00 | 0.00 | 78 | 1017.4 |
| 20260510175233 | 67 | 65 | 3.0 | 4.0 | 0.00 | 0.00 | 0.00 | 78 | 1017.6 |
| 20260510174731 | 66 | 122 | 1.0 | 6.0 | 0.00 | 0.00 | 0.00 | 79 | 1017.6 |
| 20260510174228 | 67 | 19 | 0.0 | 3.0 | 0.00 | 0.00 | 0.00 | 78 | 1017.7 |
| 20260510173724 | 66 | 71 | 1.0 | 2.0 | 0.00 | 0.00 | 0.00 | 78 | 1017.5 |
| 20260510173220 | 66 | 84 | 1.0 | 2.0 | 0.00 | 0.00 | 0.00 | 77 | 1017.5 |
| 20260510172715 | 66 | 52 | 1.0 | 2.0 | 0.00 | 0.00 | 0.00 | 79 | 1017.3 |
| 20260510172212 | 65 | 68 | 1.0 | 3.0 | 0.00 | 0.00 | 0.00 | 80 | 1017.4 |
| 20260510171709 | 65 | 93 | 1.0 | 1.0 | 0.00 | 0.00 | 0.00 | 80 | 1017.5 |
| 20260510171206 | 65 | 78 | 2.0 | 4.0 | 0.00 | 0.00 | 0.00 | 80 | 1017.4 |
| 20260510170703 | 66 | 63 | 2.0 | 4.0 | 0.00 | 0.00 | 0.00 | 79 | 1017.4 |
| 20260510170159 | 66 | 134 | 0.0 | 3.0 | 0.00 | 0.00 | 0.00 | 79 | 1017.6 |
| 20260510165655 | 66 | 103 | 1.0 | 3.0 | 0.00 | 0.00 | 0.00 | 78 | 1017.5 |
| 20260510165151 | 66 | 60 | 1.0 | 3.0 | 0.00 | 0.00 | 0.00 | 77 | 1017.3 |
| 20260510164649 | 66 | 116 | 2.0 | 3.0 | 0.00 | 0.00 | 0.00 | 74 | 1017.5 |
| 20260510164146 | 68 | 157 | 1.0 | 4.0 | 0.00 | 0.00 | 0.00 | 74 | 1017.4 |
| 20260510163636 | 67 | 283 | 1.0 | 3.0 | 0.00 | 0.00 | 0.00 | 76 | 1017.2 |
| 20260510163131 | 67 | 113 | 2.0 | 3.0 | 0.00 | 0.00 | 0.00 | 75 | 1017.4 |
| 20260510162626 | 67 | 114 | 2.0 | 2.0 | 0.00 | 0.00 | 0.00 | 75 | 1017.4 |
| 20260510162123 | 66 | 212 | 0.0 | 1.0 | 0.00 | 0.00 | 0.00 | 75 | 1017.3 |
| 20260510161619 | 66 | 100 | 0.0 | 1.0 | 0.00 | 0.00 | 0.00 | 78 | 1017.2 |
| 20260510161116 | 65 | 191 | 0.0 | 2.0 | 0.00 | 0.00 | 0.00 | 75 | 1017.3 |
| 20260510160613 | 66 | 38 | 3.0 | 3.0 | 0.00 | 0.00 | 0.00 | 75 | 1017.1 |
| 20260510160113 | 66 | 162 | 0.0 | 0.0 | 0.00 | 0.00 | 0.00 | 79 | 1017.1 |
| 20260510155609 | 66 | 100 | 0.0 | 2.0 | 0.00 | 0.00 | 0.00 | 75 | 1017.1 |
| 20260510155105 | 66 | 92 | 1.0 | 2.0 | 0.00 | 0.00 | 0.00 | 75 | 1017.4 |
| 20260510154601 | 67 | 263 | 0.0 | 1.0 | 0.00 | 0.00 | 0.00 | 76 | 1017.1 |
| 20260510154057 | 66 | 150 | 0.0 | 0.0 | 0.00 | 0.00 | 0.00 | 74 | 1016.8 |
| 20260510153557 | 67 | 141 | 0.0 | 0.0 | 0.00 | 0.00 | 0.00 | 72 | 1017.2 |
| 20260510153054 | 68 | 40 | 0.0 | 1.0 | 0.00 | 0.00 | 0.00 | 70 | 1017.1 |
| 20260510152551 | 68 | 175 | 0.0 | 2.0 | 0.00 | 0.00 | 0.00 | 68 | 1016.9 |
| 20260510152047 | 68 | 103 | 0.0 | 1.0 | 0.00 | 0.00 | 0.00 | 68 | 1017.0 |
| 20260510151543 | 68 | 247 | 0.0 | 0.0 | 0.00 | 0.00 | 0.00 | 68 | 1016.9 |
| 20260510151041 | 69 | 26 | 0.0 | 4.0 | 0.00 | 0.00 | 0.00 | 67 | 1017.1 |
| 20260510150536 | 70 | 292 | 1.0 | 3.0 | 0.00 | 0.00 | 0.00 | 65 | 1017.2 |
| 20260510150032 | 70 | 70 | 1.0 | 2.0 | 0.00 | 0.00 | 0.00 | 65 | 1017.1 |
| 20260510145529 | 69 | 351 | 1.0 | 2.0 | 0.00 | 0.00 | 0.00 | 67 | 1017.0 |
| 20260510145026 | 69 | 140 | 0.0 | 2.0 | 0.00 | 0.00 | 0.00 | 64 | 1017.1 |
| 20260510144522 | 70 | 64 | 2.0 | 2.0 | 0.00 | 0.00 | 0.00 | 65 | 1016.9 |
| 20260510144019 | 70 | 313 | 1.0 | 2.0 | 0.00 | 0.00 | 0.00 | 65 | 1017.1 |
| 20260510143514 | 69 | 115 | 0.0 | 2.0 | 0.00 | 0.00 | 0.00 | 66 | 1017.0 |
| 20260510143011 | 68 | 47 | 0.0 | 2.0 | 0.00 | 0.00 | 0.00 | 71 | 1016.9 |
| 20260510142507 | 67 | 48 | 0.0 | 2.0 | 0.00 | 0.00 | 0.00 | 71 | 1016.8 |
| 20260510142004 | 68 | 36 | 1.0 | 4.0 | 0.00 | 0.00 | 0.00 | 68 | 1017.0 |
| 20260510141500 | 69 | 93 | 1.0 | 2.0 | 0.00 | 0.00 | 0.00 | 70 | 1016.7 |
| 20260510140958 | 68 | 9 | 1.0 | 2.0 | 0.00 | 0.00 | 0.00 | 70 | 1016.8 |
| 20260510140454 | 68 | 9 | 0.0 | 2.0 | 0.00 | 0.00 | 0.00 | 72 | 1016.9 |
| 20260510135953 | 68 | 9 | 0.0 | 1.0 | 0.00 | 0.00 | 0.00 | 70 | 1016.9 |
| 20260510135449 | 67 | 267 | 0.0 | 4.0 | 0.00 | 0.00 | 0.00 | 69 | 1016.8 |
| 20260510134946 | 66 | 274 | 1.0 | 1.0 | 0.00 | 0.00 | 0.00 | 74 | 1016.7 |
| 20260510134443 | 66 | 353 | 0.0 | 1.0 | 0.00 | 0.00 | 0.00 | 72 | 1016.7 |
| 20260510133940 | 66 | 300 | 1.0 | 2.0 | 0.00 | 0.00 | 0.00 | 73 | 1016.5 |
| 20260510133436 | 67 | 322 | 2.0 | 3.0 | 0.00 | 0.00 | 0.00 | 72 | 1016.5 |
| 20260510132931 | 66 | 55 | 2.0 | 3.0 | 0.00 | 0.00 | 0.00 | 71 | 1016.4 |
| 20260510132429 | 66 | 83 | 1.0 | 4.0 | 0.00 | 0.00 | 0.00 | 75 | 1016.6 |
| 20260510131926 | 65 | 33 | 0.0 | 2.0 | 0.00 | 0.00 | 0.00 | 79 | 1016.6 |
| 20260510131424 | 64 | 244 | 1.0 | 3.0 | 0.00 | 0.00 | 0.00 | 76 | 1016.7 |
| 20260510130920 | 64 | 183 | 0.0 | 1.0 | 0.00 | 0.00 | 0.00 | 77 | 1016.9 |
| 20260510130417 | 64 | 176 | 0.0 | 2.0 | 0.00 | 0.00 | 0.00 | 80 | 1016.7 |
| 20260510125914 | 63 | 113 | 0.0 | 2.0 | 0.00 | 0.00 | 0.00 | 82 | 1016.6 |
| 20260510125405 | 62 | 63 | 1.0 | 1.0 | 0.00 | 0.00 | 0.00 | 83 | 1016.6 |
| 20260510124902 | 62 | 10 | 0.0 | 1.0 | 0.00 | 0.00 | 0.00 | 84 | 1016.7 |
| 20260510124358 | 60 | 10 | 1.0 | 1.0 | 0.00 | 0.00 | 0.00 | 85 | 1016.7 |
| 20260510123854 | 60 | 9 | 0.0 | 1.0 | 0.00 | 0.00 | 0.00 | 85 | 1016.8 |
| 20260510123350 | 61 | 10 | 2.0 | 2.0 | 0.00 | 0.00 | 0.00 | 85 | 1016.6 |
| 20260510122846 | 60 | 11 | 0.0 | 2.0 | 0.00 | 0.00 | 0.00 | 90 | 1016.6 |
| 20260510122342 | 59 | 11 | 0.0 | 0.0 | 0.00 | 0.00 | 0.00 | 94 | 1016.6 |
| 20260510121839 | 57 | 11 | 0.0 | 1.0 | 0.00 | 0.00 | 0.00 | 96 | 1016.8 |
| 20260510121337 | 57 | 11 | 0.0 | 1.0 | 0.00 | 0.00 | 0.00 | 99 | 1016.6 |
| 20260510120834 | 56 | 11 | 0.0 | 1.0 | 0.00 | 0.00 | 0.00 | 99 | 1016.5 |
| 20260510120331 | 56 | 10 | 0.0 | 0.0 | 0.00 | 0.00 | 0.00 | 99 | 1016.5 |
| 20260510115826 | 56 | 10 | 0.0 | 0.0 | 0.00 | 0.00 | 0.00 | 99 | 1016.3 |
| 20260510115323 | 56 | 10 | 0.0 | 0.0 | 0.00 | 0.00 | 0.00 | 99 | 1016.3 |
| 20260510114818 | 55 | 11 | 0.0 | 0.0 | 0.00 | 0.00 | 0.00 | 99 | 1016.3 |
| 20260510114316 | 54 | 10 | 0.0 | 0.0 | 0.00 | 0.00 | 0.00 | 99 | 1016.3 |
| 20260510113811 | 55 | 10 | 0.0 | 0.0 | 0.00 | 0.00 | 0.00 | 99 | 1016.1 |
| 20260510113309 | 54 | 10 | 0.0 | 0.0 | 0.00 | 0.00 | 0.00 | 99 | 1015.9 |
| 20260510112805 | 54 | 10 | 0.0 | 0.0 | 0.00 | 0.00 | 0.00 | 99 | 1015.8 |
| 20260510112305 | 53 | 10 | 0.0 | 0.0 | 0.00 | 0.00 | 0.00 | 99 | 1015.5 |
| 20260510111758 | 52 | 10 | 0.0 | 0.0 | 0.00 | 0.00 | 0.00 | 99 | 1015.5 |
| 20260510111255 | 51 | 10 | 0.0 | 0.0 | 0.00 | 0.00 | 0.00 | 99 | 1015.5 |
| 20260510110754 | 51 | 10 | 0.0 | 0.0 | 0.00 | 0.00 | 0.00 | 99 | 1015.5 |
| 20260510110253 | 51 | 10 | 0.0 | 0.0 | 0.00 | 0.00 | 0.00 | 99 | 1015.3 |
| 20260510105753 | 50 | 10 | 0.0 | 0.0 | 0.00 | 0.00 | 0.00 | 99 | 1015.3 |
| 20260510105247 | 50 | 10 | 0.0 | 0.0 | 0.00 | 0.00 | 0.00 | 99 | 1015.2 |
| 20260510104744 | 50 | 10 | 0.0 | 0.0 | 0.00 | 0.00 | 0.00 | 99 | 1015.3 |
| 20260510104242 | 50 | 10 | 0.0 | 0.0 | 0.00 | 0.00 | 0.00 | 99 | 1015.1 |
| 20260510103738 | 50 | 10 | 0.0 | 0.0 | 0.00 | 0.00 | 0.00 | 99 | 1015.2 |
| 20260510103235 | 50 | 10 | 0.0 | 0.0 | 0.00 | 0.00 | 0.00 | 99 | 1015.1 |
| 20260510102734 | 50 | 10 | 0.0 | 0.0 | 0.00 | 0.00 | 0.00 | 99 | 1015.2 |
| 20260510102230 | 49 | 10 | 0.0 | 0.0 | 0.00 | 0.00 | 0.00 | 99 | 1015.1 |
| 20260510101728 | 49 | 10 | 0.0 | 0.0 | 0.00 | 0.00 | 0.00 | 99 | 1015.1 |
| 20260510101227 | 49 | 10 | 0.0 | 0.0 | 0.00 | 0.00 | 0.00 | 99 | 1015.1 |
| 20260510100722 | 48 | 10 | 0.0 | 0.0 | 0.00 | 0.00 | 0.00 | 99 | 1015.0 |
| 20260510100221 | 49 | 10 | 0.0 | 0.0 | 0.00 | 0.00 | 0.00 | 99 | 1014.7 |
| 20260510095721 | 48 | 10 | 0.0 | 0.0 | 0.00 | 0.00 | 0.00 | 99 | 1014.8 |
| 20260510095216 | 48 | 10 | 0.0 | 0.0 | 0.00 | 0.00 | 0.00 | 99 | 1014.6 |
| 20260510094715 | 48 | 10 | 0.0 | 0.0 | 0.00 | 0.00 | 0.00 | 99 | 1014.7 |
| 20260510094211 | 49 | 10 | 0.0 | 0.0 | 0.00 | 0.00 | 0.00 | 99 | 1014.6 |
| 20260510093707 | 49 | 10 | 0.0 | 0.0 | 0.00 | 0.00 | 0.00 | 99 | 1014.3 |
| 20260510093204 | 49 | 10 | 0.0 | 0.0 | 0.00 | 0.00 | 0.00 | 99 | 1014.3 |
| 20260510092700 | 49 | 10 | 0.0 | 0.0 | 0.00 | 0.00 | 0.00 | 99 | 1014.4 |
| 20260510092156 | 49 | 10 | 0.0 | 0.0 | 0.00 | 0.00 | 0.00 | 99 | 1014.2 |
| 20260510091652 | 49 | 10 | 0.0 | 0.0 | 0.00 | 0.00 | 0.00 | 99 | 1014.2 |
| 20260510091148 | 49 | 10 | 0.0 | 0.0 | 0.00 | 0.00 | 0.00 | 99 | 1014.2 |
| 20260510090645 | 49 | 10 | 0.0 | 0.0 | 0.00 | 0.00 | 0.00 | 99 | 1013.9 |
| 20260510090142 | 49 | 10 | 0.0 | 0.0 | 0.00 | 0.00 | 0.00 | 99 | 1014.0 |
| 20260510085637 | 49 | 10 | 0.0 | 0.0 | 0.00 | 0.00 | 0.00 | 99 | 1014.1 |
| 20260510085132 | 49 | 10 | 0.0 | 0.0 | 0.00 | 0.00 | 0.00 | 99 | 1014.0 |
| 20260510084629 | 49 | 10 | 0.0 | 0.0 | 0.00 | 0.00 | 0.00 | 99 | 1013.9 |
| 20260510084126 | 50 | 10 | 0.0 | 0.0 | 0.00 | 0.00 | 0.00 | 99 | 1013.9 |
| 20260510083622 | 49 | 10 | 0.0 | 0.0 | 0.00 | 0.00 | 0.00 | 99 | 1013.9 |
| 20260510083120 | 49 | 10 | 0.0 | 0.0 | 0.00 | 0.00 | 0.00 | 99 | 1014.0 |
| 20260510082616 | 49 | 10 | 0.0 | 0.0 | 0.00 | 0.00 | 0.00 | 99 | 1014.0 |
| 20260510082112 | 50 | 10 | 0.0 | 0.0 | 0.00 | 0.00 | 0.00 | 99 | 1013.8 |
| 20260510081611 | 50 | 10 | 0.0 | 0.0 | 0.00 | 0.00 | 0.00 | 99 | 1013.8 |
| 20260510081108 | 50 | 10 | 0.0 | 0.0 | 0.00 | 0.00 | 0.00 | 99 | 1013.9 |
| 20260510080607 | 50 | 10 | 0.0 | 0.0 | 0.00 | 0.00 | 0.00 | 99 | 1013.9 |
| 20260510080104 | 50 | 11 | 0.0 | 0.0 | 0.00 | 0.00 | 0.00 | 99 | 1013.6 |
| 20260510075601 | 50 | 11 | 0.0 | 0.0 | 0.00 | 0.00 | 0.00 | 99 | 1013.7 |
| 20260510075058 | 50 | 11 | 0.0 | 0.0 | 0.00 | 0.00 | 0.00 | 99 | 1013.5 |
| 20260510074555 | 50 | 11 | 0.0 | 0.0 | 0.00 | 0.00 | 0.00 | 99 | 1013.6 |
| 20260510074050 | 50 | 11 | 0.0 | 0.0 | 0.00 | 0.00 | 0.00 | 99 | 1013.6 |
| 20260510073547 | 50 | 11 | 0.0 | 1.0 | 0.00 | 0.00 | 0.00 | 99 | 1013.6 |
| 20260510073044 | 50 | 11 | 0.0 | 0.0 | 0.00 | 0.00 | 0.00 | 99 | 1013.8 |
| 20260510072541 | 50 | 11 | 0.0 | 0.0 | 0.00 | 0.00 | 0.00 | 99 | 1013.3 |
| 20260510072036 | 50 | 10 | 0.0 | 0.0 | 0.00 | 0.00 | 0.00 | 99 | 1013.8 |
| 20260510071533 | 50 | 11 | 0.0 | 0.0 | 0.00 | 0.00 | 0.00 | 99 | 1013.6 |
| 20260510071031 | 50 | 11 | 0.0 | 0.0 | 0.00 | 0.00 | 0.00 | 99 | 1013.8 |
| 20260510070527 | 50 | 11 | 0.0 | 0.0 | 0.00 | 0.00 | 0.00 | 99 | 1013.7 |
| 20260510070024 | 50 | 11 | 0.0 | 0.0 | 0.00 | 0.00 | 0.00 | 99 | 1013.7 |
| 20260510065521 | 50 | 11 | 0.0 | 0.0 | 0.00 | 0.00 | 0.00 | 99 | 1013.5 |
| 20260510065017 | 50 | 10 | 0.0 | 0.0 | 0.00 | 0.00 | 0.00 | 99 | 1013.7 |
| 20260510064514 | 50 | 10 | 0.0 | 0.0 | 0.00 | 0.00 | 0.00 | 99 | 1013.8 |
| 20260510064010 | 50 | 10 | 0.0 | 0.0 | 0.00 | 0.00 | 0.00 | 99 | 1013.8 |
| 20260510063507 | 50 | 10 | 0.0 | 0.0 | 0.00 | 0.00 | 0.00 | 99 | 1013.7 |
| 20260510063005 | 50 | 10 | 0.0 | 0.0 | 0.00 | 0.00 | 0.00 | 99 | 1013.6 |
| 20260510062500 | 51 | 10 | 0.0 | 0.0 | 0.00 | 0.00 | 0.00 | 99 | 1013.8 |
| 20260510061955 | 51 | 10 | 0.0 | 0.0 | 0.00 | 0.00 | 0.00 | 99 | 1013.7 |
| 20260510061452 | 50 | 10 | 0.0 | 0.0 | 0.00 | 0.00 | 0.00 | 99 | 1013.7 |
| 20260510060949 | 51 | 10 | 0.0 | 0.0 | 0.00 | 0.00 | 0.00 | 99 | 1013.7 |
| 20260510060446 | 50 | 11 | 0.0 | 0.0 | 0.00 | 0.00 | 0.00 | 99 | 1013.8 |
| 20260510055942 | 50 | 11 | 0.0 | 0.0 | 0.00 | 0.00 | 0.00 | 99 | 1014.0 |
| 20260510055438 | 51 | 10 | 0.0 | 0.0 | 0.00 | 0.00 | 0.00 | 99 | 1014.0 |
| 20260510054936 | 51 | 10 | 0.0 | 0.0 | 0.00 | 0.00 | 0.00 | 99 | 1013.8 |
| 20260510054431 | 50 | 11 | 0.0 | 0.0 | 0.00 | 0.00 | 0.00 | 99 | 1014.1 |
| 20260510053926 | 51 | 10 | 0.0 | 0.0 | 0.00 | 0.00 | 0.00 | 99 | 1014.0 |
| 20260510053422 | 51 | 10 | 0.0 | 0.0 | 0.00 | 0.00 | 0.00 | 99 | 1014.0 |
| 20260510052918 | 51 | 10 | 0.0 | 0.0 | 0.00 | 0.00 | 0.00 | 99 | 1014.2 |
| 20260510052414 | 51 | 10 | 0.0 | 0.0 | 0.00 | 0.00 | 0.00 | 99 | 1014.3 |
| 20260510051911 | 51 | 10 | 0.0 | 0.0 | 0.00 | 0.00 | 0.00 | 99 | 1014.1 |
| 20260510051408 | 51 | 11 | 0.0 | 0.0 | 0.00 | 0.00 | 0.00 | 99 | 1014.2 |
| 20260510050904 | 51 | 10 | 0.0 | 0.0 | 0.00 | 0.00 | 0.00 | 99 | 1014.1 |
| 20260510050401 | 51 | 11 | 0.0 | 0.0 | 0.00 | 0.00 | 0.00 | 99 | 1014.2 |
| 20260510045858 | 51 | 11 | 0.0 | 0.0 | 0.00 | 0.00 | 0.00 | 99 | 1014.3 |
| 20260510045354 | 51 | 10 | 0.0 | 0.0 | 0.00 | 0.00 | 0.00 | 99 | 1014.0 |
| 20260510044851 | 51 | 10 | 0.0 | 0.0 | 0.00 | 0.00 | 0.00 | 99 | 1014.1 |
| 20260510044348 | 51 | 11 | 0.0 | 0.0 | 0.00 | 0.00 | 0.00 | 99 | 1014.1 |
| 20260510043845 | 51 | 11 | 0.0 | 0.0 | 0.00 | 0.00 | 0.00 | 99 | 1014.1 |
| 20260510043341 | 51 | 10 | 0.0 | 0.0 | 0.00 | 0.00 | 0.00 | 99 | 1014.0 |
| 20260510042839 | 51 | 11 | 0.0 | 0.0 | 0.00 | 0.00 | 0.00 | 99 | 1014.2 |
| 20260510042335 | 51 | 11 | 0.0 | 0.0 | 0.00 | 0.00 | 0.00 | 99 | 1014.2 |
| 20260510041831 | 51 | 10 | 0.0 | 0.0 | 0.00 | 0.00 | 0.00 | 99 | 1014.0 |
| 20260510041329 | 51 | 11 | 0.0 | 0.0 | 0.00 | 0.00 | 0.00 | 99 | 1014.0 |
| 20260510040826 | 51 | 11 | 0.0 | 0.0 | 0.00 | 0.00 | 0.00 | 99 | 1014.0 |
| 20260510040322 | 51 | 11 | 0.0 | 0.0 | 0.00 | 0.00 | 0.00 | 99 | 1013.9 |
| 20260510035818 | 51 | 11 | 0.0 | 0.0 | 0.00 | 0.00 | 0.00 | 99 | 1014.1 |
| 20260510035314 | 51 | 11 | 0.0 | 0.0 | 0.00 | 0.00 | 0.00 | 99 | 1014.0 |
| 20260510034810 | 51 | 10 | 0.0 | 0.0 | 0.00 | 0.00 | 0.00 | 99 | 1014.2 |
| 20260510034307 | 51 | 11 | 0.0 | 0.0 | 0.00 | 0.00 | 0.00 | 99 | 1014.1 |
| 20260510033803 | 51 | 11 | 0.0 | 0.0 | 0.00 | 0.00 | 0.00 | 99 | 1014.0 |
| 20260510033301 | 51 | 11 | 0.0 | 0.0 | 0.00 | 0.00 | 0.00 | 99 | 1014.0 |
| 20260510032757 | 51 | 11 | 0.0 | 0.0 | 0.00 | 0.00 | 0.00 | 99 | 1013.9 |
| 20260510032253 | 51 | 11 | 0.0 | 0.0 | 0.00 | 0.00 | 0.00 | 99 | 1013.8 |
| 20260510031749 | 51 | 11 | 0.0 | 0.0 | 0.00 | 0.00 | 0.00 | 99 | 1013.7 |
| 20260510031245 | 51 | 10 | 0.0 | 0.0 | 0.00 | 0.00 | 0.00 | 99 | 1013.8 |
| 20260510030739 | 51 | 10 | 0.0 | 0.0 | 0.00 | 0.00 | 0.00 | 99 | 1013.8 |
| 20260510030236 | 51 | 11 | 0.0 | 0.0 | 0.00 | 0.00 | 0.00 | 99 | 1013.7 |
| 20260510025734 | 51 | 10 | 0.0 | 0.0 | 0.00 | 0.00 | 0.00 | 99 | 1013.6 |
| 20260510025231 | 51 | 10 | 0.0 | 0.0 | 0.00 | 0.00 | 0.00 | 99 | 1013.6 |
| 20260510024722 | 51 | 10 | 0.0 | 0.0 | 0.00 | 0.00 | 0.00 | 99 | 1013.5 |
| 20260510024218 | 51 | 10 | 0.0 | 0.0 | 0.00 | 0.00 | 0.00 | 99 | 1013.5 |
| 20260510023714 | 52 | 10 | 0.0 | 0.0 | 0.00 | 0.00 | 0.00 | 99 | 1013.5 |
| 20260510023211 | 52 | 10 | 0.0 | 0.0 | 0.00 | 0.00 | 0.00 | 99 | 1013.3 |
| 20260510022707 | 52 | 11 | 0.0 | 0.0 | 0.00 | 0.00 | 0.00 | 99 | 1013.6 |
| 20260510022202 | 52 | 10 | 0.0 | 0.0 | 0.00 | 0.00 | 0.00 | 99 | 1013.3 |
| 20260510021657 | 52 | 10 | 0.0 | 0.0 | 0.00 | 0.00 | 0.00 | 99 | 1013.3 |
| 20260510021155 | 52 | 11 | 0.0 | 0.0 | 0.00 | 0.00 | 0.00 | 99 | 1013.2 |
| 20260510020655 | 52 | 11 | 0.0 | 0.0 | 0.00 | 0.00 | 0.00 | 98 | 1013.2 |
| 20260510020151 | 52 | 10 | 0.0 | 0.0 | 0.00 | 0.00 | 0.00 | 98 | 1013.2 |
| 20260510015647 | 52 | 11 | 0.0 | 0.0 | 0.00 | 0.00 | 0.00 | 98 | 1013.0 |
| 20260510015144 | 53 | 11 | 0.0 | 0.0 | 0.00 | 0.00 | 0.00 | 98 | 1013.1 |
| 20260510014638 | 53 | 11 | 0.0 | 0.0 | 0.00 | 0.00 | 0.00 | 98 | 1012.9 |
| 20260510014136 | 53 | 10 | 0.0 | 0.0 | 0.00 | 0.00 | 0.00 | 97 | 1012.7 |
| 20260510013631 | 53 | 11 | 0.0 | 0.0 | 0.00 | 0.00 | 0.00 | 97 | 1012.6 |
| 20260510013127 | 53 | 11 | 0.0 | 0.0 | 0.00 | 0.00 | 0.00 | 97 | 1012.4 |
| 20260510012626 | 53 | 10 | 0.0 | 0.0 | 0.00 | 0.00 | 0.00 | 97 | 1012.4 |
| 20260510012123 | 54 | 10 | 0.0 | 0.0 | 0.00 | 0.00 | 0.00 | 96 | 1012.3 |
| 20260510011622 | 54 | 11 | 0.0 | 0.0 | 0.00 | 0.00 | 0.00 | 95 | 1012.2 |
| 20260510011118 | 54 | 11 | 0.0 | 0.0 | 0.00 | 0.00 | 0.00 | 95 | 1012.3 |
| 20260510010615 | 55 | 11 | 0.0 | 0.0 | 0.00 | 0.00 | 0.00 | 94 | 1012.3 |
| 20260510010112 | 55 | 11 | 0.0 | 0.0 | 0.00 | 0.00 | 0.00 | 94 | 1012.2 |
| 20260510005607 | 55 | 11 | 0.0 | 0.0 | 0.00 | 0.00 | 0.00 | 93 | 1012.2 |
| 20260510005105 | 55 | 11 | 0.0 | 0.0 | 0.00 | 0.00 | 0.00 | 93 | 1012.1 |
| 20260510004603 | 56 | 11 | 0.0 | 0.0 | 0.00 | 0.00 | 0.00 | 92 | 1012.3 |
| 20260510004101 | 56 | 11 | 0.0 | 0.0 | 0.00 | 0.00 | 0.00 | 91 | 1011.9 |
| 20260510003557 | 56 | 11 | 0.0 | 0.0 | 0.00 | 0.00 | 0.00 | 91 | 1012.0 |
| 20260510003053 | 57 | 11 | 0.0 | 0.0 | 0.00 | 0.00 | 0.00 | 89 | 1011.8 |
| 20260510002548 | 57 | 11 | 0.0 | 0.0 | 0.00 | 0.00 | 0.00 | 88 | 1011.9 |
| 20260510002046 | 58 | 11 | 0.0 | 0.0 | 0.00 | 0.00 | 0.00 | 88 | 1011.7 |
| 20260510001543 | 58 | 10 | 0.0 | 0.0 | 0.00 | 0.00 | 0.00 | 87 | 1011.6 |
| 20260510001042 | 58 | 11 | 0.0 | 0.0 | 0.00 | 0.00 | 0.00 | 86 | 1011.8 |
| 20260510000537 | 59 | 11 | 0.0 | 0.0 | 0.00 | 0.00 | 0.00 | 87 | 1011.6 |
| 20260510000034 | 59 | 11 | 0.0 | 0.0 | 0.00 | 0.00 | 0.00 | 85 | 1011.5 |
| 20260509235530 | 60 | 11 | 0.0 | 0.0 | 0.00 | 0.00 | 0.00 | 83 | 1011.5 |
| 20260509235027 | 60 | 11 | 0.0 | 0.0 | 0.00 | 0.00 | 0.00 | 83 | 1011.3 |
| 20260509234523 | 60 | 11 | 0.0 | 0.0 | 0.00 | 0.00 | 0.00 | 83 | 1011.5 |
| 20260509234021 | 61 | 11 | 0.0 | 0.0 | 0.00 | 0.00 | 0.00 | 84 | 1011.5 |
| 20260509233518 | 61 | 11 | 0.0 | 0.0 | 0.00 | 0.00 | 0.00 | 83 | 1011.2 |
| 20260509233015 | 62 | 11 | 0.0 | 0.0 | 0.00 | 0.00 | 0.00 | 79 | 1011.1 |
| 20260509232512 | 62 | 10 | 0.0 | 0.0 | 0.00 | 0.00 | 0.00 | 80 | 1011.3 |
| 20260509232009 | 62 | 10 | 0.0 | 0.0 | 0.00 | 0.00 | 0.00 | 78 | 1011.3 |
| 20260509231505 | 63 | 10 | 0.0 | 0.0 | 0.00 | 0.00 | 0.00 | 78 | 1011.4 |
| 20260509231003 | 64 | 10 | 0.0 | 1.0 | 0.00 | 0.00 | 0.00 | 76 | 1011.3 |
| 20260509230459 | 64 | 10 | 0.0 | 0.0 | 0.00 | 0.00 | 0.00 | 77 | 1011.2 |
| 20260509225956 | 64 | 10 | 0.0 | 0.0 | 0.00 | 0.00 | 0.00 | 75 | 1011.0 |
| 20260509225452 | 65 | 10 | 0.0 | 1.0 | 0.00 | 0.00 | 0.00 | 76 | 1011.2 |
| 20260509224948 | 66 | 11 | 1.0 | 1.0 | 0.00 | 0.00 | 0.00 | 73 | 1011.1 |
| 20260509224443 | 67 | 10 | 0.0 | 1.0 | 0.00 | 0.00 | 0.00 | 71 | 1011.3 |
| 20260509223941 | 69 | 12 | 1.0 | 1.0 | 0.00 | 0.00 | 0.00 | 66 | 1011.0 |
| 20260509223437 | 70 | 12 | 0.0 | 1.0 | 0.00 | 0.00 | 0.00 | 61 | 1011.2 |
| 20260509222935 | 71 | 12 | 0.0 | 1.0 | 0.00 | 0.00 | 0.00 | 61 | 1011.3 |
| 20260509222430 | 71 | 12 | 1.0 | 1.0 | 0.00 | 0.00 | 0.00 | 60 | 1011.3 |
| 20260509221926 | 71 | 13 | 0.0 | 2.0 | 0.00 | 0.00 | 0.00 | 58 | 1011.5 |
| 20260509221423 | 72 | 12 | 1.0 | 1.0 | 0.00 | 0.00 | 0.00 | 57 | 1011.5 |
| 20260509220918 | 71 | 13 | 1.0 | 2.0 | 0.00 | 0.00 | 0.00 | 59 | 1011.7 |
| 20260509220415 | 73 | 34 | 2.0 | 2.0 | 0.00 | 0.00 | 0.00 | 54 | 1011.7 |
| 20260509215911 | 71 | 89 | 0.0 | 1.0 | 0.00 | 0.00 | 0.00 | 58 | 1011.7 |
| 20260509215406 | 71 | 103 | 0.0 | 3.0 | 0.00 | 0.00 | 0.00 | 57 | 1011.6 |
| 20260509214904 | 70 | 1 | 2.0 | 2.0 | 0.00 | 0.00 | 0.00 | 62 | 1011.6 |
| 20260509214401 | 69 | 1 | 0.0 | 1.0 | 0.00 | 0.00 | 0.00 | 62 | 1011.6 |
| 20260509213858 | 70 | 0 | 0.0 | 1.0 | 0.00 | 0.00 | 0.00 | 61 | 1011.7 |
| 20260509213354 | 71 | 0 | 3.0 | 6.0 | 0.00 | 0.00 | 0.00 | 57 | 1011.6 |
| 20260509212851 | 70 | 36 | 1.0 | 3.0 | 0.00 | 0.00 | 0.00 | 61 | 1011.7 |
| 20260509212343 | 69 | 12 | 0.0 | 0.0 | 0.00 | 0.00 | 0.00 | 63 | 1011.7 |
| 20260509211839 | 69 | 273 | 2.0 | 2.0 | 0.00 | 0.00 | 0.00 | 59 | 1011.6 |
| 20260509211335 | 72 | 314 | 2.0 | 3.0 | 0.00 | 0.00 | 0.00 | 58 | 1011.5 |
| 20260509210831 | 71 | 305 | 1.0 | 2.0 | 0.00 | 0.00 | 0.00 | 55 | 1011.6 |
| 20260509210329 | 71 | 93 | 4.0 | 4.0 | 0.00 | 0.00 | 0.00 | 54 | 1011.7 |
| 20260509205828 | 70 | 101 | 0.0 | 1.0 | 0.00 | 0.00 | 0.00 | 59 | 1011.8 |
| 20260509205323 | 70 | 153 | 0.0 | 2.0 | 0.00 | 0.00 | 0.00 | 62 | 1011.8 |
| 20260509204820 | 70 | 342 | 0.0 | 2.0 | 0.00 | 0.00 | 0.00 | 60 | 1011.8 |
| 20260509204316 | 70 | 163 | 0.0 | 2.0 | 0.00 | 0.00 | 0.00 | 58 | 1011.6 |
| 20260509203813 | 69 | 8 | 1.0 | 2.0 | 0.00 | 0.00 | 0.00 | 57 | 1011.6 |
| 20260509203310 | 69 | 71 | 2.0 | 3.0 | 0.00 | 0.00 | 0.00 | 58 | 1011.5 |
| 20260509202806 | 70 | 42 | 0.0 | 1.0 | 0.00 | 0.00 | 0.00 | 59 | 1011.8 |
| 20260509202306 | 70 | 331 | 0.0 | 1.0 | 0.00 | 0.00 | 0.00 | 56 | 1011.5 |
| 20260509201801 | 70 | 48 | 1.0 | 2.0 | 0.00 | 0.00 | 0.00 | 62 | 1011.7 |
| 20260509201259 | 69 | 296 | 1.0 | 2.0 | 0.00 | 0.00 | 0.00 | 61 | 1011.8 |
| 20260509200755 | 69 | 126 | 3.0 | 3.0 | 0.00 | 0.00 | 0.00 | 59 | 1011.9 |
| 20260509200250 | 70 | 264 | 0.0 | 2.0 | 0.00 | 0.00 | 0.00 | 60 | 1011.9 |
| 20260509195746 | 69 | 238 | 0.0 | 1.0 | 0.00 | 0.00 | 0.00 | 64 | 1011.7 |
| 20260509195242 | 69 | 58 | 0.0 | 2.0 | 0.00 | 0.00 | 0.00 | 60 | 1012.0 |
| 20260509194742 | 69 | 131 | 0.0 | 2.0 | 0.00 | 0.00 | 0.00 | 61 | 1011.7 |
| 20260509194238 | 70 | 125 | 0.0 | 2.0 | 0.00 | 0.00 | 0.00 | 63 | 1012.0 |
| 20260509193735 | 71 | 336 | 1.0 | 3.0 | 0.00 | 0.00 | 0.00 | 62 | 1011.9 |
| 20260509193235 | 69 | 292 | 1.0 | 2.0 | 0.00 | 0.00 | 0.00 | 60 | 1012.0 |
| 20260509192731 | 69 | 89 | 1.0 | 1.0 | 0.00 | 0.00 | 0.00 | 60 | 1012.0 |
| 20260509192226 | 69 | 283 | 2.0 | 3.0 | 0.00 | 0.00 | 0.00 | 58 | 1011.8 |